SL-14 R/B, 17296

Orbit data source: Space-Track

SL-14 R/B, 17296 is space debris in LEO originally from a launch on Wed, 14 Jan 1987 UTC launched from the Plesetsk Missile And Space Complex (PKMTR). Debris objects in space refer to the collection of defunct objects orbiting the Earth. Examples of debris include non-operational satellites, rocket bodies, and fragments generated from explosions, collisions, or faulty payload assembly.

Loading next visibility...
Identifier
17296, 1987-003B
Orbit
LEO
Country
Flag of CISCIS
Related business
Manufacturer
Yuzhnoe
Mission
Spacecraft
Bus & Motor
S5M, Unknown motor
Mass
1,600 kg wet, 1,600 kg dry
Launch date (UTC)
1987-01-14 (39 years ago)
Launch vehicle
Unknown
Launch site
Plesetsk Missile And Space Complex (PKMTR)
Object type
Payload
Rocket body
Debris
Shape & HBR
Cyl, 1.4 m
Radar Cross Section
7.351 m², Large (>1 m²)

Expand to show TLE details & history
Last TLE update: 11 hours ago

TLE from 11 hours ago
0 SL-14 R/B
1 17296U 87003B   26122.03571079  .00000424  00000-0  46045-4 0  9991
2 17296  82.5302 230.9590 0017216 331.3826  28.6444 14.85677702102624
Epoch: 2026-05-02T00:51Z
TLE epoch observation values (Epoch: 2026-05-02T00:51:25.412Z)
Latitude
0.00003°
Longitude
-1.85627°
Altitude
603.943 km
Speed
7.563 km/s
True Right ascension
15h 23m 50s
True Declination
0° 00' 00"
Sunlit
Object was in full shadow at epoch
Visualization orbit readout
Latitude
Unknown
Longitude
Unknown
Altitude
Unknown
Speed
Unknown
Apparent Right ascension
Unknown
Apparent Declination
Unknown
Sunlit
N/A
Visualization observer readout
Local Sidereal Time
19:55:17
Azimuth
Unknown
Elevation
Unknown
Doppler factor
Unknown
Orbital elements
Apogee altitude
620.502 km
Perigee altitude
596.446 km
Semi-major axis
6,986.611 km
Eccentricity
0.00172
Inclination
82.5302°
RAAN
230.959°
Arg. of periapsis
331.3826°
True anomaly
28.73915°
Mean anomaly
28.6444°
Eccentric anomaly
28.69176°
Mean motion
3.71658 °/min
Orbital period
96.86 mins
BSTAR
0.000046045
Loading maneuver chart data...
Computing Atmospheric mass density...
Loading historical data...
Loading historical data...
Loading historical data...
Loading historical data...
Loading historical data...
Loading historical data...
Loading historical data...
Other satellites on launch #3 in the year 1987 (1987-01-14 UTC)

Documentation

Showing up to 5 results
|